Regional Weather Roundup
Issued by NWS

Home | Current Version | Previous Version | Text Only | Print | Product List | Glossary Off
Versions: 1 2 3 4 5 6 7 8 9 10 11 12 13 14 15 16 17 18 19 20 21 22 23 24 25 26 27 28 29 30 31 32 33 34 35 36 37 38 39 40 41 42 43 44 45 46 47 48 49 50

000
ASUS43 KOAX 181502
RWRNE

WEATHER ROUNDUP FOR NEBRASKA
NATIONAL WEATHER SERVICE OMAHA NE
900 AM CST THU DEC 18 2014

NOTES: SATELLITE DATA IS BEING USED TO AUGMENT CLOUD COVER ABOVE
       12000 FEET.
       "FAIR" INDICATES FEW OR NO CLOUDS BELOW 12,000 FEET WITH NO
       SIGNIFICANT WEATHER AND/OR OBSTRUCTIONS TO VISIBILITY.

  * THESE STATIONS DO NOT REPORT WEATHER SUCH AS RAIN...SNOW OR FOG.

NEZ001>004-019>022-054>056-181600-
NEBRASKA PANHANDLE

CITY           SKY/WX    TMP DP  RH WIND       PRES   REMARKS
SCOTTSBLUFF    CLOUDY     6   3  87 NW6       30.05S FOG     WCI  -4
ALLIANCE       PTCLDY     3  -1  83 CALM      30.02R
CHADRON        PTCLDY     5   1  83 W5        30.05R WCI  -4
SIDNEY         MOCLDY    16  12  84 W13       30.03R WCI   2
$$

NEZ057>060-069>072-079>082-181600-
SOUTHWEST NEBRASKA

CITY           SKY/WX    TMP DP  RH WIND       PRES   REMARKS
NORTH PLATTE   CLOUDY    25  23  92 SW6       30.11R WCI  18
IMPERIAL       CLOUDY    25  23  92 CALM      30.09R FOG
MCCOOK         CLOUDY    24  22  91 S3        30.13R FOG
$$

NEZ005>010-023>029-035>040-094-181600-
NORTH CENTRAL NEBRASKA

CITY           SKY/WX    TMP DP  RH WIND       PRES   REMARKS
VALENTINE      CLOUDY    26  22  84 SW3       30.07S
BROKEN BOW     CLOUDY    25  23  92 S9        30.12R FOG     WCI  15
ORD            CLOUDY    23  20  88 SE7       30.15R FOG     WCI  15
$$

NEZ041-046>049-061>064-073>077-083>087-181600-
SOUTH CENTRAL NEBRASKA

CITY           SKY/WX    TMP DP  RH WIND       PRES   REMARKS
GRAND ISLAND   CLOUDY    24  21  88 SE3       30.20R
HASTINGS       CLOUDY    24  22  91 S5        30.17R WCI  18
KEARNEY *      CLOUDY    25  21  86 SE7       30.17R WCI  17
$$

NEZ011>018-030>034-042>045-181600-
NORTHEAST NEBRASKA

CITY           SKY/WX    TMP DP  RH WIND       PRES   REMARKS
NORFOLK        CLOUDY    26  22  84 S5        30.20R WCI  20
BLAIR          LGT SNOW  27  24  88 E6        30.22S WCI  20
COLUMBUS *     CLOUDY    25  19  80 CALM      30.22R
TEKAMAH        CLOUDY    27  21  78 SE8       30.25R WCI  19
$$

NEZ050>053-065>068-078-088>093-181600-
SOUTHEAST NEBRASKA

CITY           SKY/WX    TMP DP  RH WIND       PRES   REMARKS
LINCOLN        LGT SNOW  28  24  85 CALM      30.24S FOG
OMAHA EPPLEY   LGT SNOW  27  23  85 SE8       30.26S FOG     WCI  19
FALLS CITY     LGT SNOW  27  25  92 E5        30.24R FOG     WCI  22
$$

NEZ044-045-051>053-067-181600-
OMAHA AREA

CITY           SKY/WX    TMP DP  RH WIND       PRES   REMARKS
OMAHA EPPLEY   LGT SNOW  27  23  85 SE8       30.26S FOG     WCI  19
BLAIR          LGT SNOW  27  24  88 E6        30.22S WCI  20
$$


USA.gov is the U.S. government's official web portal to all federal, state and local government web resources and services.